EW3722 Weather Reports


time (UTC)temp
C
wind
direction
speed
KPH
gust
KPH
rain 1hr
cm
rain 24hr
cm
rain mn
cm
humidity
%
barometer
mb
20260507083518 16 0.0 0.0 0.00 0.10 0.05 75 1014.6
20260507081519 15 0.0 0.0 0.00 0.10 0.05 77 1014.5
20260507080518 15 0.0 6.4 0.00 0.10 0.05 77 1014.2
20260507075518 15 0.0 0.0 0.00 0.10 0.05 77 1014.2
20260507074518 15 0.0 1.6 0.00 0.10 0.05 76 1014.2
20260507073518 15 0.0 0.0 0.00 0.10 0.05 77 1014.1
20260507071518 15 0.0 0.0 0.00 0.10 0.05 77 1014.3
20260507070537 15 0.0 0.0 0.00 0.10 0.05 78 1013.9
20260507065517 14 0.0 8.0 0.00 0.10 0.05 78 1013.8
20260507064517 15 113 1.6 8.0 0.00 0.10 0.05 79 1013.8
20260507063518 14 0.0 4.8 0.00 0.10 0.05 83 1013.8
20260507061518 13 0.0 4.8 0.00 0.10 0.05 85 1013.8
20260507060517 13 0.0 0.0 0.00 0.10 0.05 86 1013.7
20260507055517 13 113 1.6 9.7 0.00 0.10 0.05 87 1013.7
20260507054538 12 0.0 6.4 0.00 0.10 0.05 87 1013.6
20260507053517 13 0.0 8.0 0.00 0.10 0.05 87 1013.7
20260507052538 12 0.0 6.4 0.00 0.10 0.05 88 1013.7
20260507051537 12 0.0 0.0 0.00 0.10 0.05 88 1013.8
20260507050517 12 0.0 0.0 0.00 0.10 0.05 89 1013.6
20260507044517 12 0.0 16.1 0.00 0.10 0.05 90 1013.5
20260507043537 12 0.0 6.4 0.00 0.10 0.05 90 1013.4
20260507042537 12 113 3.2 17.7 0.00 0.10 0.05 90 1013.3
20260507041517 12 0.0 0.0 0.00 0.10 0.05 90 1013.3
20260507040537 12 113 4.8 25.7 0.00 0.10 0.05 90 1013.0
20260507034517 12 158 1.6 19.3 0.00 0.10 0.05 90 1013.0
20260507033537 12 0.0 11.3 0.00 0.10 0.05 90 1012.9
20260507032518 12 0.0 0.0 0.00 0.10 0.05 90 1012.9
20260507031517 12 0.0 9.7 0.00 0.10 0.05 90 1012.9
20260507030517 12 0.0 0.0 0.03 0.10 0.05 91 1012.9
20260507025537 12 113 3.2 19.3 0.03 0.10 0.05 91 1013.0
20260507024517 12 90 1.6 11.3 0.03 0.10 0.05 91 1013.0
20260507023517 12 0.0 12.9 0.03 0.10 0.05 91 1013.1
20260507021517 12 0.0 0.0 0.05 0.10 0.05 90 1013.1
20260507020517 12 0.0 6.4 0.03 0.08 0.03 90 1012.9
20260507014517 12 68 1.6 30.6 0.03 0.08 0.03 89 1012.6
20260507013517 13 0.0 3.2 0.03 0.08 0.03 89 1012.8
20260507011517 13 0.0 0.0 0.00 0.05 0.00 89 1012.9
20260507010517 13 0.0 0.0 0.00 0.05 0.00 89 1012.9
20260507004517 13 113 1.6 17.7 0.00 0.05 0.00 88 1013.0
20260507003517 13 90 1.6 16.1 0.00 0.05 0.00 88 1013.0
20260507001557 13 0.0 11.3 0.00 0.05 0.00 88 1012.8
20260507000517 13 90 1.6 24.1 0.00 0.05 0.00 88 1012.7
20260506234517 13 0.0 6.4 0.00 0.05 0.00 88 1013.0
20260506233517 13 0.0 9.7 0.00 0.05 0.00 88 1012.9
20260506231537 13 0.0 11.3 0.00 0.05 0.00 88 1012.8
20260506230516 13 113 1.6 17.7 0.00 0.05 0.00 88 1013.1
20260506225516 13 0.0 14.5 0.00 0.05 0.00 88 1013.2
20260506224536 13 113 1.6 16.1 0.00 0.05 0.00 88 1013.2
20260506223516 13 0.0 6.4 0.00 0.05 0.00 87 1013.3
20260506222517 13 0.0 3.2 0.00 0.05 0.00 87 1013.4
20260506221516 13 0.0 0.0 0.00 0.05 0.00 86 1013.4
20260506220517 13 0.0 6.4 0.00 0.05 0.00 85 1013.1
20260506215517 13 0.0 0.0 0.00 0.05 0.05 85 1013.3
20260506214518 13 0.0 9.7 0.00 0.05 0.05 85 1013.2
20260506213517 13 0 3.2 17.7 0.00 0.05 0.05 86 1013.4
20260506212537 13 0.0 3.2 0.00 0.05 0.05 87 1013.3
20260506211518 13 0.0 0.0 0.00 0.05 0.05 88 1013.3
20260506210518 13 0.0 0.0 0.00 0.05 0.05 88 1013.1
20260506204537 13 0.0 0.0 0.03 0.08 0.05 87 1013.1
20260506203538 13 0.0 1.6 0.03 0.08 0.05 87 1013.0
20260506202517 13 0.0 14.5 0.03 0.08 0.05 87 1013.0
20260506201537 13 0.0 6.4 0.03 0.08 0.05 87 1013.0
20260506200517 13 90 3.2 14.5 0.05 0.08 0.05 86 1013.0
20260506195517 13 0.0 1.6 0.05 0.08 0.05 85 1013.0
20260506194517 13 0.0 6.4 0.03 0.05 0.03 84 1012.9
20260506193557 14 0.0 0.0 0.03 0.05 0.03 82 1013.0
20260506192517 15 0.0 3.2 0.03 0.05 0.03 79 1012.8
20260506191517 15 0.0 6.4 0.03 0.05 0.03 75 1012.8
20260506190517 15 0.0 3.2 0.00 0.03 0.00 71 1012.5
20260506184517 15 0.0 3.2 0.00 0.03 0.00 71 1012.3
20260506183517 15 113 1.6 17.7 0.00 0.03 0.00 72 1012.2
20260506182537 15 113 1.6 17.7 0.00 0.03 0.00 74 1012.4
20260506181517 15 113 1.6 17.7 0.00 0.03 0.00 75 1012.4
20260506180517 15 0.0 1.6 0.00 0.03 0.00 76 1012.0
20260506175517 15 0.0 6.4 0.00 0.03 0.00 78 1011.9
20260506174517 15 0.0 1.6 0.00 0.03 0.00 78 1011.9
20260506173517 15 0.0 0.0 0.00 0.03 0.00 78 1011.9
20260506172517 15 203 1.6 14.5 0.00 0.03 0.00 76 1011.8
20260506171517 16 0.0 6.4 0.00 0.03 0.00 75 1011.9
20260506170537 16 0.0 3.2 0.00 0.03 0.00 72 1011.9
20260506165517 16 203 3.2 24.1 0.00 0.03 0.00 70 1011.9
20260506164517 16 0.0 6.4 0.00 0.03 0.00 69 1011.9
20260506163517 17 203 1.6 22.5 0.00 0.03 0.00 67 1011.6
20260506162517 17 135 1.6 14.5 0.00 0.03 0.00 64 1011.6
20260506161517 17 158 1.6 8.0 0.00 0.03 0.00 63 1011.6
20260506160517 17 113 1.6 12.9 0.00 0.03 0.00 62 1011.5
20260506155517 17 0.0 12.9 0.00 0.03 0.00 63 1011.5
20260506154517 17 180 1.6 16.1 0.00 0.03 0.00 64 1011.4
20260506153517 17 0.0 1.6 0.00 0.03 0.00 61 1011.5
20260506152517 17 203 1.6 6.4 0.00 0.03 0.00 59 1011.4
20260506151537 17 135 1.6 20.9 0.00 0.03 0.00 59 1011.4
20260506150516 18 180 1.6 8.0 0.00 0.03 0.00 58 1011.4
20260506145517 18 113 1.6 16.1 0.00 0.03 0.00 57 1011.5
20260506144517 18 225 4.8 24.1 0.00 0.03 0.00 55 1011.6
20260506143516 20 203 1.6 17.7 0.00 0.03 0.00 53 1011.5
20260506141517 21 203 3.2 14.5 0.00 0.03 0.00 50 1011.4
20260506140536 20 203 1.6 9.7 0.00 0.03 0.00 55 1011.6
20260506135537 18 248 1.6 14.5 0.00 0.03 0.00 58 1011.9
20260506134517 18 180 4.8 20.9 0.00 0.03 0.00 56 1011.9
20260506133517 18 0.0 8.0 0.00 0.03 0.00 59 1012.1
20260506132517 18 203 3.2 19.3 0.00 0.03 0.00 58 1012.2
20260506131517 18 203 3.2 12.9 0.00 0.03 0.00 57 1012.2
20260506130556 19 158 3.2 14.5 0.00 0.03 0.00 56 1012.2
20260506125516 20 113 3.2 12.9 0.00 0.03 0.00 54 1012.1
20260506124517 20 180 3.2 14.5 0.00 0.03 0.00 53 1012.1
20260506123516 21 180 3.2 16.1 0.00 0.03 0.00 53 1012.2
20260506122516 21 113 3.2 19.3 0.00 0.03 0.00 51 1012.0
20260506121516 20 180 6.4 17.7 0.00 0.03 0.00 50 1012.0
20260506120516 20 180 3.2 12.9 0.00 0.03 0.00 52 1012.0
20260506115516 20 135 3.2 24.1 0.00 0.03 0.00 53 1011.9
20260506114516 20 203 3.2 19.3 0.00 0.03 0.00 49 1012.0
20260506113516 18 225 3.2 19.3 0.00 0.03 0.00 53 1012.0
20260506112516 18 203 4.8 17.7 0.00 0.03 0.00 55 1012.1
20260506111516 18 203 1.6 11.3 0.00 0.03 0.00 57 1012.1
20260506110518 18 158 3.2 16.1 0.00 0.03 0.00 56 1012.6
20260506105518 17 180 1.6 8.0 0.00 0.03 0.00 59 1012.3
20260506104518 18 180 3.2 19.3 0.00 0.03 0.00 57 1012.4
20260506103518 17 203 1.6 8.0 0.00 0.05 0.00 60 1012.4
20260506102518 17 135 3.2 11.3 0.00 0.05 0.00 60 1012.4
20260506101518 17 180 3.2 20.9 0.00 0.05 0.00 60 1012.4
20260506100518 17 135 1.6 17.7 0.00 0.05 0.00 62 1012.5
20260506095538 17 158 3.2 24.1 0.00 0.05 0.00 61 1012.5
20260506094518 17 158 3.2 19.3 0.00 0.05 0.00 62 1012.5
20260506093518 17 135 3.2 20.9 0.00 0.05 0.00 61 1012.4
20260506092538 17 0.0 6.4 0.00 0.05 0.00 64 1012.6
20260506091518 16 113 1.6 22.5 0.00 0.05 0.00 64 1012.6
20260506090518 16 135 4.8 24.1 0.00 0.05 0.00 62 1012.4
20260506085518 17 135 1.6 12.9 0.00 0.05 0.00 62 1012.3
20260506084518 17 180 3.2 16.1 0.00 0.05 0.00 62 1012.3